Location: Unspecified
(43.4680°N, 87.1740°E)
Time: 20:01:49
(UTC+00:00)

CZ-2D R/B - Pass Details

Date: 25 July 2021
Orbit: 553 x 637 km, 97.9° (Epoch: 20 September)

Event Time Altitude Azimuth Distance (km) Brightness Sun altitude
Rises 22:05:32 0° 7° (N) 2,750 7.6 -8.3°
Reaches altitude 10° 22:07:42 10° 2° (N) 1,856 6.6 -8.0°
Maximum altitude 22:11:35 50° 287° (WNW) 723 3.7 -7.4°
Drops below altitude 10° 22:15:31 10° 212° (SSW) 1,877 5.5 -6.9°
Enters shadow 22:16:22 - 209° (SSW) 2,228 5.9 -6.7°
